2023/01/29 00:00:00,33.3,-3.2
2023/01/29 00:10:00,33.3,-2.8
2023/01/29 00:20:00,33.2,-2.8
2023/01/29 00:30:00,33.2,-3.1
2023/01/29 00:40:00,33.2,-2.4
2023/01/29 00:50:00,33.1,-2.5
2023/01/29 01:00:00,33.0,-2.3
2023/01/29 01:10:00,33.0,-2.6
2023/01/29 01:20:00,32.8,-3.2
2023/01/29 01:30:00,32.7,-2.8
2023/01/29 01:40:00,32.6,-2.5
2023/01/29 01:50:00,32.5,-2.6
2023/01/29 02:00:00,32.4,-2.8
2023/01/29 02:10:00,32.4,-2.7
2023/01/29 02:20:00,32.3,-2.9
2023/01/29 02:30:00,32.3,-3.2
2023/01/29 02:40:00,32.3,-3.2
2023/01/29 02:50:00,32.2,-3.2
2023/01/29 03:00:00,32.1,-3.0
2023/01/29 03:10:00,32.1,-2.8
2023/01/29 03:20:00,32.0,-2.8
2023/01/29 03:30:00,31.9,-2.7
2023/01/29 03:40:00,31.8,-2.8
2023/01/29 03:50:00,31.7,-2.9
2023/01/29 04:00:00,31.7,-3.0
2023/01/29 04:10:00,31.6,-3.2
2023/01/29 04:20:00,31.6,-2.9
2023/01/29 04:30:00,31.5,-3.5
2023/01/29 04:40:00,31.5,-3.0
2023/01/29 04:50:00,31.4,-3.3
2023/01/29 05:00:00,31.4,-2.9
2023/01/29 05:10:00,31.4,-3.1
2023/01/29 05:20:00,31.3,-3.2
2023/01/29 05:30:00,31.1,-3.7
2023/01/29 05:40:00,31.1,-4.5
2023/01/29 05:50:00,31.0,-4.4
2023/01/29 06:00:00,31.0,-3.5
2023/01/29 06:10:00,31.0,-3.5
2023/01/29 06:20:00,31.0,-3.7
2023/01/29 06:30:00,31.0,-3.5
2023/01/29 06:40:00,31.2,-3.2
2023/01/29 06:50:00,31.0,-3.2
2023/01/29 07:00:00,30.8,-3.3
2023/01/29 07:10:00,30.7,-3.2
2023/01/29 07:20:00,30.6,-2.9
2023/01/29 07:30:00,30.6,-2.9
2023/01/29 07:40:00,30.5,-2.8
2023/01/29 07:50:00,30.4,-3.1
2023/01/29 08:00:00,30.4,-2.2
2023/01/29 08:10:00,30.4,-2.0
2023/01/29 08:20:00,30.3,-2.1
2023/01/29 08:30:00,30.4,-0.2
2023/01/29 08:40:00,30.7, 2.9
2023/01/29 08:50:00,30.6, 1.9
2023/01/29 09:00:00,30.7, 5.7
2023/01/29 09:10:00,30.7, 8.8
2023/01/29 09:20:00,30.2, 2.7
2023/01/29 09:30:00,29.9, 2.5
2023/01/29 09:40:00,30.0, 3.2
2023/01/29 09:50:00,30.0, 3.8
2023/01/29 10:00:00,30.0, 4.0
2023/01/29 10:10:00,30.5, 8.6
2023/01/29 10:20:00,30.6, 9.6
2023/01/29 10:30:00,30.1, 6.2
2023/01/29 10:40:00,29.7, 5.0
2023/01/29 10:50:00,29.6, 5.1
2023/01/29 11:00:00,29.6, 9.5
2023/01/29 11:10:00,30.0, 9.8
2023/01/29 11:20:00,29.7, 9.9
2023/01/29 11:30:00,29.5,11.5
2023/01/29 11:40:00,29.6,12.7
2023/01/29 11:50:00,29.5, 9.1
2023/01/29 12:00:00,29.3, 7.9
2023/01/29 12:10:00,29.1, 7.4
2023/01/29 12:20:00,29.4,15.1
2023/01/29 12:30:00,29.8,16.3
2023/01/29 12:40:00,29.6,14.5
2023/01/29 12:50:00,29.4,13.2
2023/01/29 13:00:00,29.4,13.8
2023/01/29 13:10:00,29.4,14.5
2023/01/29 13:20:00,29.1,10.7
2023/01/29 13:30:00,28.8, 8.3
2023/01/29 13:40:00,28.9,10.4
2023/01/29 13:50:00,28.8,10.8
2023/01/29 14:00:00,28.5, 7.9
2023/01/29 14:10:00,28.3, 6.6
2023/01/29 14:20:00,28.4, 9.0
2023/01/29 14:30:00,28.4, 9.3
2023/01/29 14:40:00,28.2, 9.9
2023/01/29 14:50:00,28.2, 9.2
2023/01/29 15:00:00,28.5,11.8
2023/01/29 15:10:00,28.4,12.1
2023/01/29 15:20:00,28.2,11.4
2023/01/29 15:30:00,28.1,12.9
2023/01/29 15:40:00,28.0,11.8
2023/01/29 15:50:00,27.8,10.9
2023/01/29 16:00:00,27.8,12.2
2023/01/29 16:10:00,27.8,12.2
2023/01/29 16:20:00,27.6, 9.7
2023/01/29 16:30:00,27.4, 5.1
2023/01/29 16:40:00,27.4, 4.0
2023/01/29 16:50:00,27.4, 5.4
2023/01/29 17:00:00,27.3, 2.7
2023/01/29 17:10:00,27.3, 1.7
2023/01/29 17:20:00,27.3, 0.4
2023/01/29 17:30:00,27.4,-0.7
2023/01/29 17:40:00,27.3,-1.1
2023/01/29 17:50:00,27.2,-1.8
2023/01/29 18:00:00,27.2,-1.7
2023/01/29 18:10:00,27.3,-2.1
2023/01/29 18:20:00,27.2,-2.1
2023/01/29 18:30:00,27.2,-2.1
2023/01/29 18:40:00,27.2,-2.5
2023/01/29 18:50:00,27.1,-2.8
2023/01/29 19:00:00,27.1,-3.0
2023/01/29 19:10:00,27.0,-2.8
2023/01/29 19:20:00,27.0,-3.1
2023/01/29 19:30:00,27.0,-3.6
2023/01/29 19:40:00,27.0,-3.5
2023/01/29 19:50:00,27.0,-3.0
2023/01/29 20:00:00,26.9,-3.2
2023/01/29 20:10:00,26.9,-3.3
2023/01/29 20:20:00,26.9,-3.4
2023/01/29 20:30:00,26.9,-3.3
2023/01/29 20:40:00,26.8,-3.0
2023/01/29 20:50:00,26.8,-3.4
2023/01/29 21:00:00,26.8,-2.9
2023/01/29 21:10:00,26.8,-3.4
2023/01/29 21:20:00,26.8,-3.4
2023/01/29 21:30:00,26.7,-3.4
2023/01/29 21:40:00,26.7,-3.1
2023/01/29 21:50:00,26.7,-3.6
2023/01/29 22:00:00,26.7,-3.5
2023/01/29 22:10:00,26.6,-3.9
2023/01/29 22:20:00,26.6,-3.6
2023/01/29 22:30:00,26.6,-3.4
2023/01/29 22:40:00,26.5,-3.3
2023/01/29 22:50:00,26.5,-4.2
2023/01/29 23:00:00,26.5,-4.1
2023/01/29 23:10:00,26.5,-3.9
2023/01/29 23:20:00,26.5,-4.1
2023/01/29 23:30:00,26.6,-4.1
2023/01/29 23:40:00,26.5,-4.5
2023/01/29 23:50:00,26.4,-4.8
